Orbital Elements at Epoch 2459200.5 (2020-Dec-17.0) TDB
Reference: JPL 13 (heliocentric ecliptic J2000)
Element | Value | Uncertainty (1-sigma) | Units |
e | .09917039944027106 | 7.5298e-08 | |
a | 2.283320174470409 | 1.7537e-08 | au |
q | 2.05688240071815 | 1.6761e-07 | au |
i | 2.447232796558403 | 7.2718e-06 | deg |
node | 286.1246650387353 | 0.00015924 | deg |
peri | 243.0387195180903 | 0.00016324 | deg |
M | 288.617991990904 | 3.4136e-05 | deg |
tp | 2459450.381962256292 (2021-Aug-23.88196226) | 0.0001205 | TDB |
period | 1260.226616219622 3.45 | 1.4519e-05 3.975e-08 | d yr |
n | .2856629080568967 | 3.2911e-09 | deg/d |
Q | 2.509757948222669 | 1.9276e-08 | au |
|
| | Orbit Determination Parameters
Additional Information
|